This is the latest recevied weather packets stored in our database for station/object AC5JC-1. If no packets are shown the sender has not sent any weather packets the latest 10 day(s).
| Time | Temp. | Humidity | Pressure | Rain* | Wind** | Luminosity | Snow |
|---|---|---|---|---|---|---|---|
| 1777758634 | 25.56° C | 41% | 1019.8 hPa | 0 mm | - | 445 W/m² | - |
| 1777754454 | 25° C | 43% | 1020.7 hPa | 0 mm | - | 610 W/m² | - |
| 1777752071 | 24.44° C | 44% | 1021.2 hPa | 0 mm | - | 677 W/m² | - |
| 1777751434 | 24.44° C | 43% | 1021.1 hPa | 0 mm | - | 653 W/m² | - |
| 1777749335 | 23.89° C | 45% | 1021.4 hPa | 0 mm | - | 671 W/m² | - |
| 1777749034 | 23.89° C | 44% | 1021.5 hPa | 0 mm | - | 696 W/m² | - |
| 1777746935 | 23.89° C | 44% | 1021.9 hPa | 0 mm | - | 644 W/m² | - |
| 1777746035 | 23.33° C | 41% | 1022 hPa | 0 mm | - | 663 W/m² | - |
| 1777745160 | 23.33° C | 41% | 1022.3 hPa | 0 mm | - | 669 W/m² | - |
| 1777744520 | 23.33° C | 42% | 1022.4 hPa | 0 mm | - | 679 W/m² | - |
| 1777743624 | 22.78° C | 42% | 1022.6 hPa | 0 mm | - | 753 W/m² | - |
| 1777742735 | 22.78° C | 42% | 1022.8 hPa | 0 mm | - | 660 W/m² | - |
| 1777742135 | 22.78° C | 43% | 1022.9 hPa | 0 mm | - | 679 W/m² | - |
| 1777741834 | 22.78° C | 38% | 1022.9 hPa | 0 mm | - | 695 W/m² | - |
| 1777740934 | 22.22° C | 48% | 1023 hPa | 0 mm | - | 733 W/m² | - |
| 1777739455 | 21.11° C | 48% | 1023.1 hPa | 0 mm | - | 765 W/m² | - |
| 1777737035 | 20° C | 65% | 1022.8 hPa | 0 mm | - | 602 W/m² | - |
| 1777735834 | 18.89° C | 73% | 1022.7 hPa | 0 mm | - | 581 W/m² | - |
| 1777734935 | 18.33° C | 74% | 1022.7 hPa | 0 mm | - | 543 W/m² | - |
| 1777731634 | 16.11° C | 84% | 1022.7 hPa | 0 mm | - | 290 W/m² | - |
| 1777729884 | 13.89° C | 89% | 1022.5 hPa | 0 mm | - | 165 W/m² | - |
| 1777729224 | 13.33° C | 91% | 1022.3 hPa | 0 mm | - | 137 W/m² | - |
| 1777728355 | 12.22° C | 94% | 1022.2 hPa | 0 mm | - | 96 W/m² | - |
| 1777725634 | 10° C | 99% | 1021.9 hPa | 0 mm | - | 29 W/m² | - |
| 1777724135 | 10° C | 99% | 1021.3 hPa | 0 mm | - | 18 W/m² | - |
* Rain latest hour (hover to see other rain measurements)
** Current wind speed in m/s (hover to see current wind gust speed)